This is the latest recevied weather packets stored in our database for station/object W1LH-12. If no packets are shown the sender has not sent any weather packets the latest 10 day(s).
| Time | Temp. | Humidity | Pressure | Rain* | Wind** | Luminosity | Snow |
|---|---|---|---|---|---|---|---|
| 1777592779 | 8.33° C | - | 1007.8 hPa | 0 mm | - | - | - |
| 1777592481 | 8.33° C | - | 1007.8 hPa | 0 mm | - | - | - |
| 1777591580 | 8.33° C | - | 1008.2 hPa | 0 mm | - | - | - |
| 1777589182 | 8.33° C | - | 1007.5 hPa | 0 mm | - | - | - |
| 1777588281 | 8.33° C | - | 1007.5 hPa | 0 mm | - | - | - |
| 1777587679 | 8.33° C | - | 1007.5 hPa | 0 mm | - | - | - |
| 1777586480 | 8.33° C | - | 1007.5 hPa | 0 mm | - | - | - |
| 1777586180 | 8.33° C | - | 1007.8 hPa | 0 mm | - | - | - |
| 1777585580 | 8.33° C | - | 1007.8 hPa | 0 mm | - | - | - |
| 1777585280 | 8.33° C | - | 1007.8 hPa | 0 mm | - | - | - |
| 1777581082 | 8.33° C | - | 1008.8 hPa | 0 mm | - | - | - |
| 1777573880 | 8.33° C | - | 1010.9 hPa | 0 mm | - | - | - |
| 1777572981 | 8.33° C | - | 1010.9 hPa | 0 mm | - | - | - |
| 1777572682 | 8.33° C | - | 1010.9 hPa | 0 mm | - | - | - |
| 1777569381 | 8.89° C | - | 1011.2 hPa | 0 mm | - | - | - |
| 1777568780 | 8.89° C | - | 1011.2 hPa | 0 mm | - | - | - |
| 1777555579 | 11.11° C | - | 1013.2 hPa | 0 mm | - | - | - |
| 1777542380 | 5° C | - | 1014.3 hPa | 0 mm | - | - | - |
| 1777542080 | 5° C | - | 1014.3 hPa | 0 mm | - | - | - |
| 1777539079 | 4.44° C | - | 1014.3 hPa | 0 mm | - | - | - |
| 1777538481 | 4.44° C | - | 1013.9 hPa | 0 mm | - | - | - |
| 1777517481 | 6.11° C | - | 1017 hPa | 0 mm | - | - | - |
| 1777517181 | 6.11° C | - | 1017 hPa | 0 mm | - | - | - |
| 1777511181 | 6.67° C | - | 1017.7 hPa | 0 mm | - | - | - |
| 1777508180 | 7.22° C | - | 1018 hPa | 0 mm | - | - | - |
* Rain latest hour (hover to see other rain measurements)
** Current wind speed in m/s (hover to see current wind gust speed)